Wind_Speed
27 26 27 28 28 30 33 34 37 38 36 34 31 29 30 25 19 25 30 26 26 29 28 25 24 22 21 20 19 19 19 18 18 19 21 22 23 24 24 25 27 28 29 31 32 33 33 32 32 32 30 30 31 31 30 27 27 29 30 29 28 27 23 17 18 20 18 14 14 17 22 25 24 19 20 22 23 23 25 25 25 25 24 24 24 23 23
26 25 25 27 27 28 32 36 39 40 37 31 28 29 29 24 21 26 30 29 32 36 37 37 33 29 27 27 28 29 26 23 24 25 27 29 30 31 31 32 33 33 33 33 33 35 35 33 31 31 31 31 32 31 31 31 30 31 32 32 31 30 26 20 18 20 20 17 15 16 21 25 24 20 20 24 25 26 26 26 26 26 26 26 26 26 25
27 27 24 24 24 25 30 36 40 40 37 32 31 32 32 29 26 26 27 30 37 41 41 39 36 31 29 33 38 34 25 21 23 25 27 29 30 31 32 33 35 35 33 32 31 31 31 31 30 29 28 29 30 32 33 34 34 33 32 31 30 29 28 24 20 20 20 20 18 17 19 25 26 22 20 23 25 26 26 27 28 28 28 28 28 28 28
31 36 31 29 32 31 34 43 46 42 40 39 37 36 34 32 29 28 28 30 33 35 33 33 35 33 30 30 31 26 19 19 21 20 22 23 23 23 24 26 28 29 29 29 28 28 28 28 28 28 28 28 29 31 32 33 34 33 32 30 27 25 25 25 23 21 20 21 22 20 18 23 28 27 24 22 23 25 26 26 27 29 30 30 29 29 30
33 38 33 34 34 27 33 47 43 34 33 35 36 37 38 37 33 30 29 30 30 28 26 28 30 28 25 23 20 18 20 24 24 21 18 17 18 18 18 20 21 23 25 26 28 29 29 28 29 30 30 29 27 26 27 29 30 30 29 28 26 24 23 22 22 22 21 22 24 23 20 21 25 29 30 28 24 23 25 26 27 28 30 32 32 31 31
32 34 30 27 21 18 34 48 38 23 17 17 20 26 30 33 32 29 29 32 32 29 28 29 29 26 22 20 17 16 19 22 23 22 20 17 17 18 19 20 22 23 25 26 28 31 31 31 32 32 31 30 26 23 24 26 26 25 25 24 23 24 24 21 19 20 22 23 24 24 24 23 23 25 30 32 30 27 25 27 29 30 31 33 35 35 34
34 36 28 14 12 26 45 50 40 27 19 16 20 23 24 27 28 29 33 35 35 32 30 30 31 28 22 19 17 15 15 16 17 18 20 20 21 22 22 23 25 26 27 28 29 31 33 34 34 33 32 31 25 21 22 24 23 21 21 21 21 21 22 21 19 18 19 22 25 27 27 27 24 23 25 30 34 33 30 29 29 29 31 33 35 36 36
30 28 21 14 20 38 50 49 43 37 30 29 32 34 34 32 31 33 36 36 35 32 27 24 24 22 20 17 17 17 16 15 15 15 18 21 23 24 24 24 25 27 29 29 31 33 35 36 37 37 36 31 25 22 21 21 22 21 19 18 19 19 20 19 18 17 17 21 24 27 29 30 28 23 22 26 33 34 32 31 30 29 29 31 33 36 37
27 24 24 26 29 36 48 51 44 37 34 31 27 29 33 31 27 30 33 32 31 29 25 21 17 14 15 14 13 15 16 16 16 17 17 19 21 23 24 25 25 27 29 32 34 37 38 39 39 39 37 31 26 24 22 20 20 21 20 19 18 19 20 19 17 17 17 19 23 27 30 32 31 27 22 23 28 32 33 33 33 31 30 31 32 34 36
30 26 21 19 14 20 39 45 33 24 23 20 17 23 30 29 25 27 30 29 29 28 26 24 18 13 14 15 14 15 17 18 18 18 20 20 21 22 23 25 27 29 31 35 37 38 37 36 36 34 31 27 25 24 23 22 21 21 21 20 19 18 19 19 18 17 17 19 21 26 30 33 34 33 29 25 24 28 33 35 35 33 33 32 31 31 32
29 26 18 12 11 22 38 38 25 17 18 20 21 23 29 31 27 23 24 23 23 24 23 23 21 15 12 13 15 17 18 18 19 20 21 22 22 22 23 24 27 29 31 32 31 31 30 29 28 27 24 24 25 26 25 25 24 23 22 21 19 18 18 19 18 16 17 19 21 24 29 33 36 37 36 33 28 27 31 35 36 36 36 35 33 31 31
26 27 23 20 21 30 36 31 24 23 22 23 20 14 20 29 25 18 17 17 17 19 17 15 15 12 7 6 10 14 15 16 17 19 20 19 19 20 20 21 23 25 25 25 24 24 25 26 27 28 27 26 27 28 27 27 26 25 24 23 21 19 18 19 19 17 17 20 22 24 27 31 35 37 37 36 33 31 32 33 36 39 40 38 34 32 31
25 24 23 22 24 28 31 29 28 29 29 25 19 15 19 23 21 19 21 18 16 16 15 15 15 14 11 10 10 11 12 13 15 16 17 17 17 18 19 20 21 22 22 22 24 25 27 30 32 33 33 32 31 30 30 29 28 26 25 24 23 21 19 19 20 19 17 20 23 25 27 30 33 35 36 35 33 33 33 33 35 39 42 39 34 31 30
26 24 20 20 21 21 22 21 19 21 23 21 19 18 17 15 14 17 21 19 15 13 13 15 17 17 18 19 18 18 17 16 17 18 18 19 19 20 21 23 24 25 26 27 29 30 31 32 33 32 32 32 31 31 31 30 29 28 27 25 24 23 21 19 20 21 20 20 24 26 28 30 33 34 35 34 33 33 34 34 33 36 40 41 36 30 27
21 20 16 12 11 11 16 20 20 19 21 22 21 20 20 19 15 14 15 15 14 12 12 13 14 15 16 18 19 20 21 21 21 21 21 21 21 22 24 26 27 29 31 32 32 32 30 30 30 30 31 31 30 29 29 29 29 30 30 28 26 25 23 21 20 21 22 22 24 27 29 31 34 35 36 35 33 32 34 34 33 33 38 41 36 29 27
19 18 17 18 21 26 29 31 28 23 18 20 22 22 23 21 14 9 9 9 7 8 9 9 10 11 10 10 12 15 17 20 22 22 22 22 23 24 25 27 29 30 31 31 31 30 30 31 31 32 31 31 29 28 27 27 28 30 30 30 30 29 27 25 23 22 23 23 24 27 29 32 34 35 37 38 36 33 33 34 34 35 39 39 35 32 31
32 31 34 38 42 42 37 31 28 24 21 23 26 22 19 20 18 14 12 11 9 8 9 10 12 13 13 12 12 13 15 18 21 24 25 24 24 25 27 28 29 30 31 32 33 33 33 33 33 33 31 31 31 29 28 28 29 29 29 30 31 32 32 31 28 26 24 24 25 27 29 32 35 36 36 38 39 37 34 34 36 36 37 36 34 34 34
40 40 41 42 40 39 37 34 32 33 34 33 30 20 16 18 21 21 18 17 16 14 15 16 16 17 18 19 19 19 20 20 22 24 26 26 27 29 30 31 31 31 33 35 35 36 35 33 32 33 33 33 34 33 32 32 33 32 31 31 32 33 33 33 32 31 28 26 26 27 29 31 35 37 36 37 39 40 38 37 37 37 37 36 36 34 34
38 39 41 40 39 39 39 37 34 33 31 28 24 23 22 20 22 23 23 23 23 22 22 23 23 23 24 25 26 27 27 28 28 28 29 30 32 34 35 35 33 32 33 34 35 36 35 33 34 34 34 35 35 35 36 37 37 37 36 34 34 34 34 34 33 33 32 30 28 28 30 31 34 37 38 37 39 42 42 40 39 39 39 39 37 34 32
38 39 40 38 37 37 35 33 31 27 25 24 25 28 30 28 26 25 24 24 25 26 25 26 27 29 29 28 29 31 32 33 34 33 34 35 35 36 36 35 33 32 34 36 38 38 37 37 38 38 39 38 38 39 40 40 40 40 39 39 37 36 35 35 34 33 33 32 30 30 31 32 34 37 39 39 39 41 43 43 41 39 39 39 38 37 37
42 42 37 34 35 36 33 31 31 29 27 29 31 32 34 33 32 31 30 28 28 28 28 28 29 31 30 28 29 31 32 33 34 35 35 35 35 36 35 34 33 35 38 41 42 42 41 41 41 42 43 43 42 43 44 44 44 43 41 41 40 38 37 37 36 35 34 33 33 32 33 33 34 36 39 41 40 40 42 43 42 38 37 38 39 40 40
44 42 36 34 38 39 35 33 33 32 31 33 34 34 34 34 34 35 37 37 36 35 34 34 34 36 35 34 33 34 34 35 35 35 35 36 36 38 38 38 39 42 45 45 44 44 45 45 45 46 47 47 47 47 47 49 48 45 43 43 42 40 38 39 39 37 35 34 34 34 34 35 35 36 39 41 40 39 40 43 44 41 37 38 40 41 40
45 42 39 38 39 41 40 38 37 35 34 35 36 36 35 35 34 34 35 38 39 38 38 37 38 40 40 40 40 40 40 40 40 40 41 41 42 43 43 45 47 49 48 45 42 43 45 45 46 47 48 49 49 49 50 51 48 44 43 44 43 41 40 40 40 38 37 36 36 35 36 37 36 37 39 40 40 39 38 40 44 44 39 36 38 39 39
45 43 41 40 42 43 43 42 40 39 37 37 38 38 38 37 35 32 32 33 35 37 39 40 40 40 40 40 41 42 42 42 42 42 42 42 42 41 40 39 39 39 39 38 37 39 41 42 43 44 44 45 46 46 47 47 45 43 43 43 42 41 41 41 41 40 38 38 37 37 38 38 37 38 39 40 40 39 38 38 41 43 40 35 34 36 38
45 43 41 41 43 43 42 41 41 40 37 35 35 36 35 35 34 32 32 32 32 34 36 38 38 38 37 38 38 39 40 40 39 39 39 37 36 35 33 31 30 30 29 30 32 35 38 39 40 40 41 42 41 41 42 42 42 41 40 39 40 41 41 42 42 40 39 38 39 39 39 39 38 38 39 41 40 38 38 37 37 40 40 35 32 34 36
41 42 40 41 42 40 39 39 39 36 31 28 28 29 29 29 29 29 29 29 30 31 33 35 36 35 34 35 36 37 38 39 40 40 39 35 33 33 32 31 31 29 28 28 30 32 34 36 37 38 39 38 37 36 37 38 38 38 37 36 37 39 41 42 42 41 38 38 39 40 39 39 39 38 39 40 39 38 38 38 36 39 40 36 33 32 33
36 36 37 41 43 40 36 36 35 33 29 27 28 29 28 26 26 26 26 26 26 27 28 30 32 32 32 34 35 37 39 40 42 43 40 34 32 32 34 34 33 31 30 31 31 31 32 33 35 36 37 36 35 34 34 34 35 36 36 36 37 39 40 41 41 40 38 36 37 40 40 40 39 38 38 40 38 37 38 38 36 37 39 38 34 32 32
33 32 33 37 40 38 35 34 34 34 32 31 31 32 31 30 29 29 28 28 27 27 27 29 30 31 32 33 33 34 35 35 37 38 38 34 33 33 34 35 36 35 34 33 32 32 32 32 33 35 35 34 33 32 32 32 33 35 36 37 38 39 40 39 39 39 37 35 37 39 40 39 38 37 38 38 37 36 38 38 35 34 38 39 37 34 35
34 33 34 35 36 37 36 36 37 38 39 38 38 37 35 34 33 33 32 31 30 29 29 28 28 28 30 30 30 30 31 31 32 34 35 35 35 35 35 36 37 37 36 36 34 34 34 34 35 35 33 31 30 30 31 32 33 34 35 36 36 36 36 36 37 38 38 37 39 40 40 39 38 37 37 38 36 35 36 37 35 33 35 39 39 36 36
36 37 38 38 37 37 37 37 37 38 38 38 39 39 38 37 37 38 37 35 34 34 33 32 31 32 32 32 31 31 31 32 32 33 34 36 36 36 37 37 37 37 37 37 36 36 36 36 36 35 32 30 31 32 32 33 34 34 34 35 35 36 37 38 39 39 39 39 40 41 40 38 37 37 36 36 35 35 35 36 36 34 33 37 40 38 36
40 39 40 40 39 40 39 37 35 33 32 31 31 32 33 34 35 36 35 34 35 35 35 35 35 34 34 33 33 33 34 34 33 34 35 35 36 35 36 36 37 37 36 36 36 37 37 37 36 34 32 32 33 33 34 35 35 35 35 36 37 38 39 40 40 40 39 39 40 40 39 37 36 36 35 34 35 35 34 35 35 33 31 33 38 40 39
43 44 43 42 41 42 42 38 34 31 29 27 26 26 27 28 30 30 30 29 29 29 30 31 31 30 29 29 30 31 32 33 33 34 35 35 34 34 34 34 35 35 35 35 36 36 36 35 34 32 32 32 32 32 33 34 35 37 37 38 39 41 41 41 40 38 39 41 41 39 38 37 36 35 34 33 33 34 35 34 33 32 31 31 33 38 42
47 47 46 44 42 41 40 37 34 33 31 30 29 28 26 26 26 26 25 26 27 27 28 27 27 26 27 28 29 30 30 31 31 31 32 32 31 31 33 34 34 34 34 34 33 33 33 33 32 31 31 32 32 31 32 33 34 35 36 35 36 38 40 39 37 36 38 40 40 37 36 36 35 34 33 33 33 34 34 33 31 30 30 29 29 33 38
45 45 45 43 41 39 38 37 37 37 36 35 33 31 30 29 28 27 26 26 27 27 26 25 25 25 26 27 27 27 27 29 30 30 29 28 27 27 28 30 30 31 31 31 30 30 30 29 29 30 31 31 31 30 29 27 25 24 24 25 29 34 38 37 34 33 35 35 34 33 33 34 33 33 32 32 32 33 33 32 32 31 29 29 30 33 35
39 39 39 37 36 35 35 35 36 36 36 36 34 32 30 30 30 31 30 29 29 28 26 25 24 25 25 26 26 25 24 25 26 25 24 23 23 23 25 26 27 28 29 28 28 28 27 28 29 30 30 29 26 23 20 19 18 18 19 22 24 26 26 25 24 25 28 28 28 30 32 31 31 31 31 31 32 33 32 31 31 29 27 28 30 32 34
27 27 27 27 26 26 25 25 24 25 26 26 24 23 22 22 24 26 27 28 29 29 26 24 22 22 23 24 23 20 18 17 18 18 19 20 21 22 23 23 24 25 26 26 27 27 27 26 24 20 17 16 15 14 13 14 14 14 15 16 12 5 4 9 13 17 22 24 25 28 30 29 28 28 28 29 31 31 29 29 30 31 33 37 39 39 37
19 17 18 19 19 18 17 16 15 16 16 15 15 14 14 13 15 17 19 20 22 22 21 21 20 20 19 17 15 13 13 15 17 18 19 19 20 20 21 23 24 25 25 24 22 19 17 14 9 6 4 5 7 8 8 8 7 6 7 9 7 4 2 4 7 12 17 22 26 28 30 31 31 30 31 32 33 33 32 32 34 36 38 39 41 42 40
21 15 14 16 16 15 14 13 12 11 11 9 8 8 8 8 8 10 10 11 13 14 15 15 14 13 12 12 12 12 14 15 16 16 16 17 19 20 20 20 17 13 11 10 7 4 6 6 5 5 4 4 4 3 4 7 9 8 7 9 10 9 8 11 18 23 22 20 24 27 29 32 34 35 35 36 37 38 38 37 37 37 34 31 31 33 35
24 18 15 15 16 14 13 13 12 10 7 5 4 4 3 2 1 0 2 3 4 4 5 5 6 8 9 10 11 12 13 14 15 16 17 17 16 14 12 7 4 6 5 4 6 9 10 11 12 12 14 15 15 14 14 17 19 18 18 18 17 16 15 19 24 29 30 29 30 32 35 38 38 37 38 39 40 40 39 36 33 30 28 26 25 27 28
24 21 18 17 16 14 13 14 14 13 11 9 8 9 8 8 9 11 10 9 7 4 2 0 3 5 6 8 9 10 11 11 11 8 5 4 6 8 9 10 12 13 12 14 16 19 20 20 21 21 21 21 20 20 21 21 20 20 21 23 24 23 22 23 26 29 31 32 33 34 36 38 37 36 35 35 35 35 35 32 29 29 30 30 29 28 28
23 22 20 18 16 14 13 13 13 14 14 13 14 14 14 14 13 12 11 9 8 5 4 3 3 5 6 8 7 3 2 5 7 11 17 20 22 24 26 26 25 24 24 25 25 24 24 23 22 21 21 21 21 22 24 24 24 23 23 26 29 30 29 29 31 33 33 34 34 34 34 34 34 32 31 31 31 31 30 29 27 27 27 27 27 26 25
24 23 21 19 16 14 12 12 12 12 12 13 14 13 12 12 12 11 10 8 7 7 6 4 3 3 3 5 10 17 23 25 25 27 29 30 28 28 30 31 30 28 27 28 28 28 27 27 26 25 25 25 25 24 23 23 23 24 24 25 27 29 30 30 31 31 31 32 33 32 32 32 32 31 30 29 29 29 29 29 27 25 23 22 22 21 20
27 26 24 21 18 14 11 10 11 10 11 13 15 14 12 11 10 10 10 9 8 10 13 17 20 23 25 28 30 33 34 33 33 33 36 37 37 36 35 34 32 31 29 29 29 29 29 28 28 28 28 28 28 26 25 25 24 25 26 26 27 28 29 29 29 29 29 29 30 30 29 30 30 30 30 29 28 27 27 26 24 22 20 19 18 18 17
28 27 24 22 20 18 15 13 12 11 12 13 14 13 13 13 13 16 19 22 24 27 30 32 33 33 32 32 32 32 31 31 30 30 32 35 37 38 36 34 33 32 31 30 30 30 30 29 28 27 27 27 26 25 25 25 24 24 25 26 26 27 28 28 29 29 29 29 28 28 28 28 28 28 28 28 27 25 24 22 21 20 18 16 15 14 13
28 29 27 25 24 22 19 16 14 14 16 19 20 21 24 27 29 31 32 33 34 34 33 33 33 33 31 30 30 29 28 29 28 28 28 31 33 33 31 29 28 28 27 27 28 29 29 28 27 26 25 24 23 23 23 23 23 23 22 22 23 23 24 24 24 25 25 24 24 24 24 24 25 25 25 25 24 23 22 20 19 17 15 13 11 9 8
24 26 26 27 28 28 26 23 22 23 27 31 33 34 35 36 35 33 32 31 32 32 31 31 31 31 30 29 28 27 27 27 28 28 27 27 28 28 25 23 22 22 21 20 21 22 22 21 21 21 20 19 18 19 19 20 19 19 19 19 19 19 19 19 19 19 19 19 19 18 18 18 18 18 19 19 19 18 17 16 15 13 12 10 8 7 6
20 21 22 24 27 29 30 30 31 32 33 34 35 35 35 34 32 30 29 29 29 29 29 29 28 28 27 25 24 23 23 22 23 24 25 24 24 22 20 18 17 17 15 15 16 17 16 15 14 15 15 15 14 14 15 15 15 15 15 15 15 15 15 15 15 15 15 14 14 13 13 13 13 13 13 12 12 12 11 10 9 8 7 5 4 4 4
16 18 20 21 23 27 28 29 31 32 31 31 32 31 30 30 29 28 27 27 27 27 27 26 25 25 23 21 20 21 20 19 19 21 23 21 19 18 17 16 15 14 13 13 13 14 14 13 13 13 13 13 13 13 13 13 13 13 13 13 13 12 12 11 11 10 10 10 9 8 8 8 8 7 7 6 6 6 5 4 3 3 3 2 1 1 3
14 16 18 19 20 23 25 26 28 28 28 27 28 27 26 26 26 25 24 23 22 22 23 22 22 21 20 18 17 18 18 17 18 19 20 19 17 16 15 15 14 14 13 12 12 12 13 12 12 13 13 13 12 13 13 12 12 12 12 12 12 12 11 10 9 7 6 5 4 4 3 3 3 3 2 2 1 1 2 2 3 4 5 5 5 5 6
14 15 16 18 19 20 21 22 23 24 23 23 23 23 22 21 22 22 21 20 19 19 19 20 20 20 18 17 16 16 16 16 17 17 17 16 15 14 13 13 12 12 12 11 10 11 11 11 10 11 11 11 11 11 11 10 10 10 10 10 11 11 10 9 9 7 6 5 4 3 2 1 1 0 1 1 2 2 2 3 4 4 5 6 6 7 7
13 13 14 16 17 18 18 19 21 21 20 20 21 20 19 19 19 19 18 18 17 17 17 17 18 18 18 16 16 16 16 16 16 16 15 14 13 13 13 12 12 11 11 10 10 10 10 10 9 9 9 9 9 9 9 9 8 8 8 8 7 7 7 7 7 6 6 5 5 4 3 3 2 1 1 1 2 3 3 4 5 5 6 7 8 9 10
11 11 11 13 14 15 16 18 19 19 19 19 19 18 18 17 17 17 16 16 16 16 15 15 16 17 17 16 16 15 15 15 15 15 15 14 14 14 14 13 13 13 12 11 11 11 11 11 10 10 10 9 9 9 9 8 8 8 7 7 6 5 5 5 4 3 3 3 2 2 2 2 2 3 3 4 4 5 5 6 7 7 8 9 10 11 11
Wind_Direction
276 276 277 280 280 279 278 277 278 277 271 271 275 277 277 273 263 266 272 277 273 262 263 276 278 268 262 268 282 280 264 262 273 275 270 267 264 260 262 268 272 273 273 273 277 280 282 282 281 283 286 290 292 290 285 281 274 269 268 272 279 284 286 286 280 279 282 281 269 262 263 261 256 258 265 261 251 242 236 234 234 234 234 235 235 236 237
277 274 270 270 273 276 275 272 270 270 270 273 275 273 276 276 266 265 269 272 274 272 273 280 285 282 276 275 279 275 265 267 276 275 269 265 263 261 264 270 276 277 275 273 272 273 275 275 274 275 278 283 286 285 281 278 276 272 268 268 274 281 284 283 278 276 278 277 262 249 252 255 253 254 263 264 256 249 244 239 236 234 234 235 236 237 238
280 275 274 271 271 276 276 268 262 263 267 272 272 269 272 275 273 273 275 276 278 278 279 281 282 282 282 279 277 275 272 273 273 267 263 262 261 261 262 266 271 273 273 272 271 269 270 271 272 276 281 284 284 285 285 282 279 277 276 274 274 277 280 280 275 272 271 273 268 254 244 244 243 243 256 265 260 253 251 247 243 239 237 235 236 238 239
280 277 280 277 275 280 280 270 264 264 267 267 266 265 267 272 278 282 280 277 280 282 282 282 281 282 284 284 282 277 270 264 258 253 252 254 256 257 257 261 266 268 269 270 270 270 271 272 276 282 288 288 285 282 282 283 282 280 280 282 281 277 275 273 270 268 266 267 268 265 252 243 241 239 240 248 255 255 256 254 250 246 243 240 238 238 241
279 280 282 281 283 287 279 273 273 277 276 270 267 266 267 272 277 277 276 278 282 284 285 285 283 280 279 282 282 271 260 258 257 254 251 246 246 250 253 257 261 263 266 269 272 278 281 282 284 287 291 292 288 280 273 277 283 284 283 286 287 284 279 271 263 260 260 260 263 266 262 252 248 243 234 230 234 244 253 256 256 252 248 244 241 238 239
274 278 280 283 287 275 267 272 278 284 278 268 265 264 263 265 267 269 276 281 280 278 280 282 283 283 283 280 271 257 252 255 256 254 250 246 247 250 253 259 263 265 269 274 279 285 289 291 292 293 296 296 292 279 268 270 278 284 286 288 290 290 288 281 267 255 251 252 255 260 262 259 255 249 239 228 222 225 234 245 254 258 255 249 244 239 238
266 271 274 276 258 257 268 275 276 272 266 263 265 262 254 253 261 272 277 276 274 276 281 282 282 284 285 281 270 252 243 248 252 252 250 248 251 254 256 259 263 267 273 278 283 287 290 293 294 295 296 295 289 278 270 269 274 282 286 289 290 290 289 287 280 263 247 243 247 253 258 259 257 253 246 235 227 222 224 232 245 258 259 253 247 243 241
262 259 252 244 255 267 273 276 275 274 276 276 273 269 266 264 268 272 271 269 270 275 280 284 285 282 278 277 269 253 242 245 250 252 253 253 254 257 259 260 263 269 275 279 282 284 286 289 291 293 295 291 282 275 273 270 272 279 285 287 289 288 287 286 283 273 253 239 240 247 253 257 257 252 246 242 236 229 224 225 234 249 256 254 251 248 245
260 250 243 252 266 273 274 276 278 282 283 282 275 270 271 272 268 264 263 265 269 273 277 281 284 279 273 267 251 233 227 231 239 244 248 251 255 258 262 266 270 274 277 279 279 280 281 283 287 291 292 287 277 275 277 275 274 278 283 287 287 287 287 284 281 277 264 247 239 241 246 251 254 252 244 243 243 237 229 225 230 243 252 252 253 252 247
262 259 255 259 263 266 272 278 285 288 282 274 262 263 269 271 270 266 265 266 270 272 273 277 276 270 269 263 244 227 219 218 225 236 243 247 252 258 264 270 274 276 277 278 279 279 280 282 285 288 288 283 279 282 286 288 284 280 281 284 285 285 286 284 280 275 269 259 248 242 241 243 248 251 248 245 247 245 237 230 229 237 244 244 245 248 245
265 259 255 256 254 263 273 280 286 287 278 264 262 269 271 270 272 272 265 263 268 270 267 267 265 262 264 257 236 223 220 221 222 226 236 245 251 258 263 268 272 275 277 279 280 281 282 282 283 285 286 285 286 289 292 295 294 288 285 283 282 282 281 282 279 271 264 263 257 249 244 242 244 249 251 249 248 249 245 237 229 230 234 233 232 239 243
276 264 257 258 262 268 274 279 281 282 276 267 267 271 267 266 267 263 250 243 249 256 253 251 258 264 269 250 223 215 221 230 231 226 225 232 243 253 262 268 272 274 276 277 279 279 281 282 281 281 283 284 285 285 287 291 293 289 287 286 284 282 279 277 278 273 261 258 258 255 250 246 244 247 250 251 248 247 249 245 233 230 234 234 228 229 237
296 283 269 264 267 272 276 278 281 282 278 272 269 266 267 271 270 262 258 254 254 259 258 259 269 275 275 271 260 251 244 242 247 250 248 247 250 256 262 267 269 268 266 270 274 276 279 282 282 284 285 285 284 283 284 287 289 286 284 285 285 284 281 275 275 274 264 254 255 254 251 248 246 246 248 250 248 244 246 247 239 234 239 242 235 226 227
301 299 289 281 277 274 277 282 289 296 297 294 288 283 289 301 298 285 281 284 293 300 295 291 292 288 281 277 273 274 271 260 256 263 267 267 265 264 264 266 265 264 265 270 274 277 280 282 284 286 287 286 285 284 284 285 285 283 282 283 284 284 283 277 273 272 268 258 253 253 252 249 247 245 244 246 247 244 242 244 244 241 240 242 238 227 223
301 303 301 293 276 275 295 308 313 319 323 324 317 308 305 306 307 304 299 297 303 308 302 299 299 294 289 285 279 279 281 275 269 269 270 271 272 270 270 270 268 268 270 271 274 276 278 279 280 282 284 285 285 283 281 281 282 281 280 281 282 283 284 282 277 272 269 263 257 254 253 251 248 246 243 242 243 244 242 241 243 243 241 240 238 230 223
302 298 289 285 287 293 304 311 309 308 318 328 328 320 312 304 297 287 281 276 276 279 274 268 267 266 271 281 281 280 280 278 277 278 276 274 272 271 272 271 270 269 270 271 273 274 275 277 279 280 282 284 284 281 278 279 280 279 279 279 280 282 283 285 283 278 272 266 261 257 255 253 251 248 245 242 240 240 241 241 240 240 240 239 237 234 229
289 286 283 286 291 294 297 299 297 291 292 308 316 313 302 296 289 273 257 242 235 254 265 263 263 263 261 264 268 269 271 274 277 280 280 278 274 272 271 269 267 267 268 269 272 273 275 277 280 281 282 283 284 282 280 279 279 278 278 278 278 280 281 283 284 283 278 270 263 260 257 255 253 250 247 244 240 237 237 239 239 241 241 237 233 234 234
285 283 284 286 289 291 291 291 291 287 285 293 300 291 273 280 286 281 268 253 246 252 261 267 274 276 274 272 271 268 268 270 272 275 277 277 276 278 278 276 275 273 272 271 273 274 276 277 279 280 281 282 282 281 280 279 278 276 275 274 275 276 278 280 280 281 280 275 267 262 259 257 256 253 249 246 242 237 235 235 237 239 239 235 231 231 234
287 286 287 290 292 294 295 297 298 297 292 287 283 275 272 278 280 278 275 268 263 261 262 267 273 276 277 277 276 273 272 270 269 271 272 274 276 280 281 281 281 281 279 279 279 279 279 279 280 280 280 280 280 279 279 279 279 276 273 272 271 272 274 276 276 276 277 277 272 265 261 258 256 254 252 249 244 238 234 232 235 237 236 234 231 227 228
288 289 293 298 299 299 301 301 299 296 288 276 270 276 282 283 277 272 272 271 270 269 269 270 272 273 272 271 270 271 271 271 271 272 271 272 274 276 278 279 281 283 286 287 287 286 284 283 282 282 281 280 279 279 279 279 279 278 275 272 271 271 271 272 273 273 274 274 272 268 264 259 256 255 253 251 247 241 235 231 233 238 240 237 232 225 224
291 294 299 305 306 303 302 300 296 293 289 283 280 280 282 281 276 271 268 266 268 270 270 270 271 271 270 268 267 267 267 267 268 268 267 268 270 272 273 274 274 280 287 287 284 282 281 280 280 280 279 280 280 279 278 279 279 279 277 273 270 270 270 270 270 270 271 271 270 269 267 262 258 255 254 252 249 244 238 233 232 236 240 238 234 228 224
291 295 300 305 304 302 302 301 297 295 295 294 290 286 283 280 275 272 269 268 267 267 268 269 271 271 271 270 269 268 266 266 267 266 266 267 268 270 271 270 271 277 283 283 278 274 274 274 274 274 275 275 276 275 275 276 278 278 276 272 270 269 268 267 267 267 267 268 268 268 267 266 261 255 253 253 251 247 242 235 232 233 237 237 237 237 231
291 296 298 298 297 297 299 301 299 295 292 291 290 288 285 283 280 277 275 271 268 268 269 270 272 273 273 272 271 270 269 269 270 271 272 273 273 273 273 272 273 275 276 275 271 269 269 270 271 272 273 272 271 270 269 271 273 272 270 269 269 269 267 265 264 264 263 264 265 265 266 267 264 259 254 252 251 248 244 239 233 231 234 237 238 241 237
296 300 301 299 296 295 296 298 299 295 288 286 287 284 282 282 283 283 280 276 272 270 269 270 271 273 273 272 272 271 271 272 273 274 275 276 276 276 276 276 276 276 275 273 271 270 270 270 271 272 271 269 267 266 266 267 268 267 267 268 268 267 265 263 262 261 260 261 263 264 265 266 265 261 256 253 251 247 244 243 237 231 231 235 236 237 234
301 304 305 302 299 296 294 294 294 291 288 289 290 287 285 284 283 281 280 278 275 271 269 268 269 271 272 274 275 275 276 277 277 277 277 277 276 276 276 277 279 280 279 277 275 274 273 272 272 272 270 268 267 266 267 268 269 269 269 268 267 265 263 262 260 258 257 258 260 262 264 264 264 262 257 254 251 246 243 244 241 232 228 229 231 233 232
303 304 304 300 296 294 291 289 287 287 289 292 292 290 290 289 286 283 282 280 278 277 275 273 273 274 275 276 276 277 279 279 278 279 280 280 278 277 277 279 280 280 281 280 279 279 276 274 273 273 272 270 270 269 269 270 270 270 269 266 263 262 261 261 260 258 256 255 256 259 261 262 262 261 257 253 251 247 243 243 241 234 227 224 227 231 229
300 299 299 296 293 290 286 284 283 284 287 289 289 290 291 290 289 287 285 282 279 278 277 276 276 276 276 275 275 277 278 277 277 277 277 277 275 276 278 279 279 278 278 279 279 279 277 275 273 273 273 273 272 271 270 269 268 267 265 263 261 261 260 260 260 258 256 254 254 256 258 259 259 259 256 252 250 246 242 241 241 236 228 223 224 226 222
299 297 296 293 290 289 287 285 284 284 284 284 285 285 284 283 283 282 280 276 274 271 270 270 271 271 271 271 273 274 276 277 276 274 271 268 269 273 277 277 276 275 275 276 277 276 276 276 276 276 276 275 274 272 270 268 266 264 262 262 262 262 262 260 259 258 256 254 253 254 256 256 256 256 254 251 248 244 241 239 239 237 230 224 223 223 220
304 304 301 296 294 295 294 290 287 284 282 281 279 277 277 278 278 278 278 276 275 274 273 271 271 271 273 274 275 276 276 277 276 272 267 266 269 272 274 274 274 273 273 274 275 276 277 279 280 279 278 277 276 274 271 268 266 265 264 263 264 264 263 261 259 257 254 252 252 253 254 255 255 253 250 247 244 241 238 235 234 234 229 223 221 222 221
312 310 306 302 301 301 299 294 289 286 284 282 279 276 275 274 274 275 276 277 278 279 279 278 278 278 278 278 279 279 279 278 276 272 270 270 270 271 271 272 273 273 273 274 276 276 278 279 279 278 277 277 276 275 273 271 269 268 267 266 265 265 264 262 259 255 253 251 251 252 253 253 251 248 245 243 241 238 235 231 229 230 229 224 221 220 220
310 307 303 301 301 301 299 297 294 291 290 288 284 280 277 276 275 275 274 274 275 277 277 277 277 277 277 277 278 278 277 276 275 272 271 270 271 271 271 271 272 273 275 275 276 276 277 278 277 276 276 275 275 275 274 273 272 271 269 268 267 265 263 261 258 256 254 252 250 250 250 248 244 241 239 238 236 234 230 226 225 226 226 225 223 220 217
306 303 301 300 299 298 297 296 294 294 293 292 288 284 279 276 275 274 271 270 270 271 272 273 274 276 278 280 279 277 276 275 275 273 273 273 273 271 270 270 272 274 276 276 276 276 276 275 275 274 274 274 275 275 274 272 272 272 272 271 271 269 266 262 260 258 255 251 248 247 244 239 235 233 231 230 231 230 227 225 224 223 222 225 226 223 220
300 299 298 298 297 295 292 290 291 291 290 290 289 286 281 276 273 272 270 268 268 268 269 271 274 278 281 283 283 280 275 273 273 274 276 276 273 269 266 268 271 274 276 276 277 276 275 274 275 275 275 275 275 276 276 276 276 276 275 275 274 271 268 266 263 258 251 247 244 242 238 234 229 226 224 224 224 224 223 221 220 218 220 223 225 221 219
296 295 295 295 295 293 289 288 289 289 288 286 285 282 277 272 270 270 270 269 268 268 270 274 278 281 283 284 285 283 275 271 272 275 277 276 273 269 267 268 270 273 274 276 277 277 277 277 278 277 277 278 278 279 280 279 279 278 278 277 277 276 276 275 267 254 244 240 237 233 230 226 221 217 216 216 218 220 220 218 216 215 217 220 219 215 213
298 296 296 297 297 294 290 288 288 287 286 284 283 281 276 271 268 267 268 266 263 263 269 275 278 279 280 282 284 284 279 275 275 276 276 274 271 269 269 270 272 274 275 276 277 277 278 280 281 281 281 280 277 274 272 272 274 275 275 276 280 284 283 275 257 237 230 230 227 224 222 218 215 214 213 212 214 216 215 213 212 211 212 213 213 211 212
310 307 308 310 307 302 298 295 291 288 286 284 283 282 278 274 270 268 266 263 261 262 265 268 270 273 278 281 281 281 280 280 281 281 280 277 274 273 273 274 277 279 279 279 279 279 279 279 278 277 277 271 262 258 262 269 273 274 271 271 274 284 283 266 247 227 220 218 215 214 213 209 207 209 211 210 210 210 207 209 213 214 211 209 208 208 209
334 322 323 328 327 321 317 312 304 296 290 285 283 281 279 276 273 270 266 260 257 255 254 258 264 273 279 280 278 278 282 285 287 285 281 279 279 279 279 280 283 284 284 283 281 276 269 261 248 232 233 245 248 255 265 267 262 255 246 236 210 155 141 248 219 196 199 208 211 213 212 209 206 207 207 207 206 203 197 195 195 192 186 183 184 187 191
360 349 341 348 355 354 348 343 332 318 309 304 298 290 279 268 265 268 264 253 244 243 248 257 268 276 276 273 275 278 282 285 287 287 287 288 287 285 285 286 286 280 276 280 278 234 202 191 178 176 177 166 169 179 138 103 93 93 114 142 150 141 128 126 126 125 133 157 179 186 187 188 189 187 184 182 182 181 176 173 172 170 168 166 166 171 178
12 11 5 6 7 6 7 10 11 8 6 9 10 355 322 283 255 112 111 142 172 207 233 253 270 276 275 274 275 274 276 282 289 293 295 295 291 286 282 268 196 153 140 110 100 115 127 128 125 125 122 116 116 121 116 103 92 89 95 103 113 120 118 109 103 100 103 114 126 132 136 143 149 149 147 148 151 154 157 162 167 171 171 168 165 165 165
15 15 17 19 17 16 22 28 33 41 49 52 54 60 70 83 90 89 89 94 101 104 107 234 282 284 289 294 290 281 280 287 294 303 327 45 80 87 96 114 124 119 107 101 105 110 114 115 114 111 107 102 102 106 107 104 100 100 99 96 98 104 108 106 102 101 103 107 111 113 117 122 127 128 130 133 136 138 142 147 149 148 144 140 140 141 141
13 13 17 21 22 26 35 42 47 54 61 64 68 71 76 82 87 89 90 91 87 71 49 19 338 318 312 309 307 309 96 101 102 100 97 96 95 94 94 96 98 97 96 97 100 102 105 109 109 107 104 104 105 104 101 98 97 99 99 95 93 95 101 106 107 105 102 101 103 106 108 109 111 114 119 123 126 127 128 128 126 126 128 130 131 133 132
20 20 19 21 25 31 41 49 54 60 67 71 72 73 76 80 83 83 80 72 55 33 25 26 35 59 83 101 109 108 106 104 102 99 96 95 95 96 95 94 93 93 96 97 96 95 97 100 101 99 98 99 101 101 98 95 93 92 91 91 90 92 96 99 98 96 93 93 94 96 97 97 97 98 100 104 108 112 115 116 114 113 115 117 119 121 123
26 26 26 28 30 32 39 52 58 63 72 75 75 76 79 78 73 65 61 61 66 78 90 98 101 102 103 105 106 103 99 94 90 86 85 87 89 90 90 89 88 88 92 96 97 95 94 94 95 97 97 96 97 96 95 93 92 89 85 83 82 83 85 87 87 86 86 87 89 91 93 94 94 94 95 96 98 99 102 105 108 108 109 112 114 116 119
24 26 32 41 43 42 47 58 63 64 68 71 70 72 74 76 81 86 89 93 97 99 99 98 97 96 97 99 99 97 94 91 88 83 81 82 84 84 82 81 81 83 85 89 91 90 88 86 86 88 89 89 89 88 88 89 89 88 86 84 81 80 80 81 82 83 84 84 84 85 87 88 89 92 94 95 97 98 98 99 101 103 105 109 112 115 119
24 27 35 49 56 56 57 60 60 65 74 81 85 88 91 95 99 101 100 97 96 95 93 92 91 91 92 93 92 91 90 91 92 91 87 85 84 82 78 77 77 78 80 83 85 85 84 82 80 80 80 80 79 80 82 82 83 84 85 85 84 83 82 83 83 84 84 84 83 83 83 84 84 85 86 88 90 92 93 94 96 98 99 101 106 113 121
26 27 35 50 62 69 73 74 75 81 91 96 98 97 97 99 100 100 99 97 95 93 92 93 93 93 92 91 90 89 88 90 92 93 92 89 88 87 84 82 80 77 76 79 81 81 79 79 79 79 80 80 81 82 83 82 82 82 82 82 82 83 83 83 84 85 86 86 85 86 86 87 86 85 85 87 88 88 88 88 87 86 85 88 95 105 114
30 30 37 48 60 69 75 79 80 83 89 95 96 96 95 96 97 97 98 98 98 96 95 96 95 94 94 93 92 89 87 87 88 89 86 83 82 83 82 80 77 72 69 70 72 73 72 70 69 70 73 76 79 82 84 86 87 86 82 80 80 80 77 74 73 74 74 75 76 77 79 82 83 84 83 82 82 82 83 82 80 76 73 77 92 117 142
37 41 45 51 59 66 71 77 80 82 84 86 88 90 91 93 95 97 97 96 96 96 96 94 92 90 89 86 83 80 77 76 78 80 79 76 75 77 77 76 74 71 68 66 67 70 70 70 69 70 72 72 73 75 78 81 84 86 86 86 88 89 87 82 79 76 72 68 67 65 65 67 69 71 71 70 67 64 60 58 52 33 4 348 330 234 217
47 55 57 58 61 64 67 72 76 78 79 81 83 84 86 89 91 91 90 89 91 93 93 92 90 89 86 82 78 77 76 75 75 75 75 74 75 76 76 76 75 74 72 70 71 72 72 71 71 72 73 73 73 74 74 73 74 77 79 82 86 91 95 97 97 97 95 88 82 83 83 76 66 63 62 55 36 5 338 315 299 296 294 290 281 269 256
46 61 66 65 65 64 64 67 71 74 76 78 80 80 82 85 86 86 85 85 87 90 92 92 91 88 85 83 81 79 77 76 75 74 73 74 74 73 73 73 73 73 73 71 70 71 73 73 72 73 75 76 78 79 79 78 77 75 73 74 78 84 89 94 98 101 102 100 98 97 95 88 64 352 329 315 304 293 286 278 276 275 273 270 268 267 264
34 50 61 64 65 65 64 66 70 73 74 75 75 75 76 77 78 78 79 79 78 80 83 86 87 86 85 84 83 82 80 78 78 78 78 78 78 77 77 76 74 73 72 72 72 73 74 74 73 73 73 74 75 78 81 83 83 81 77 75 76 77 80 86 94 100 104 109 114 118 121 126 142 164 193 220 231 234 236 239 240 243 248 252 254 256 259
19 34 50 59 64 67 68 70 73 74 74 72 71 70 70 71 71 72 74 73 72 72 74 76 80 84 84 83 82 82 82 81 81 82 83 83 83 83 83 83 83 82 83 82 80 79 80 78 77 76 74 71 69 69 69 69 70 71 71 70 67 61 57 56 57 59 68 83 104 126 148 172 192 207 217 228 237 242 246 249 251 253 256 257 259 262 265
Height
3088 3087 3086 3084 3083 3081 3079 3077 3076 3075 3076 3077 3077 3076 3076 3077 3077 3074 3073 3074 3073 3070 3070 3071 3071 3071 3070 3070 3071 3071 3071 3071 3071 3070 3068 3068 3068 3069 3069 3070 3072 3073 3074 3074 3075 3075 3076 3077 3077 3077 3077 3078 3079 3080 3080 3080 3079 3077 3076 3076 3075 3074 3075 3078 3079 3079 3080 3079 3079 3083 3086 3088 3089 3090 3092 3094 3094 3094 3095 3096 3098 3099 3101 3103 3104 3105 3107
3084 3084 3082 3081 3080 3078 3075 3073 3071 3070 3070 3072 3072 3072 3072 3073 3072 3070 3070 3069 3067 3066 3067 3067 3066 3066 3067 3066 3065 3065 3065 3065 3066 3066 3065 3064 3064 3065 3065 3066 3067 3068 3069 3070 3071 3072 3072 3073 3074 3075 3075 3075 3075 3075 3075 3075 3074 3073 3072 3072 3072 3071 3072 3074 3076 3076 3077 3078 3077 3078 3081 3084 3086 3087 3089 3090 3092 3092 3093 3094 3095 3097 3098 3099 3101 3102 3104
3080 3079 3078 3078 3076 3074 3071 3067 3065 3065 3066 3067 3067 3067 3068 3068 3067 3067 3066 3063 3061 3062 3064 3063 3061 3061 3062 3062 3060 3060 3061 3061 3062 3062 3060 3059 3060 3060 3061 3062 3062 3064 3065 3065 3066 3068 3069 3070 3070 3071 3071 3071 3071 3071 3070 3070 3069 3069 3068 3068 3068 3068 3069 3071 3072 3073 3074 3075 3076 3076 3077 3079 3081 3082 3084 3085 3088 3090 3091 3092 3093 3095 3096 3096 3098 3099 3101
3075 3074 3076 3074 3072 3071 3067 3060 3058 3061 3063 3062 3063 3063 3063 3063 3062 3062 3061 3058 3056 3058 3059 3058 3056 3056 3056 3056 3055 3056 3058 3058 3058 3058 3057 3056 3055 3055 3056 3057 3058 3059 3060 3060 3061 3063 3064 3065 3066 3067 3067 3067 3067 3068 3067 3066 3065 3065 3064 3064 3064 3065 3065 3067 3069 3070 3071 3072 3073 3073 3075 3075 3076 3077 3078 3080 3083 3086 3088 3089 3091 3092 3094 3095 3096 3097 3098
3071 3072 3072 3070 3071 3070 3061 3053 3054 3057 3058 3058 3058 3059 3059 3059 3059 3057 3055 3054 3053 3054 3054 3052 3051 3051 3051 3050 3050 3051 3053 3054 3054 3054 3054 3053 3053 3052 3052 3053 3055 3055 3056 3056 3056 3057 3058 3060 3062 3063 3063 3064 3064 3064 3064 3063 3062 3061 3061 3060 3060 3060 3061 3063 3065 3067 3068 3069 3069 3070 3071 3072 3072 3073 3074 3075 3078 3081 3083 3085 3087 3088 3090 3091 3093 3094 3095
3069 3069 3070 3069 3070 3063 3051 3048 3053 3054 3053 3054 3054 3054 3055 3055 3055 3053 3051 3050 3050 3050 3049 3048 3048 3047 3046 3046 3047 3048 3049 3050 3050 3050 3050 3050 3050 3050 3050 3051 3052 3053 3053 3054 3054 3053 3053 3054 3056 3058 3059 3060 3060 3060 3060 3060 3059 3058 3058 3057 3057 3057 3057 3058 3060 3062 3064 3065 3066 3066 3067 3067 3068 3069 3070 3072 3073 3074 3077 3079 3081 3083 3085 3087 3088 3090 3090
3065 3065 3068 3067 3061 3051 3045 3048 3051 3049 3050 3052 3051 3049 3050 3050 3050 3049 3048 3047 3046 3045 3045 3045 3045 3044 3043 3044 3044 3045 3045 3045 3045 3045 3045 3045 3046 3047 3047 3049 3050 3050 3051 3052 3052 3051 3050 3050 3051 3054 3056 3056 3056 3056 3056 3056 3056 3055 3055 3054 3054 3054 3054 3054 3055 3057 3059 3061 3063 3063 3063 3063 3064 3065 3066 3067 3067 3069 3071 3073 3076 3079 3081 3083 3084 3085 3086
3061 3061 3062 3057 3049 3044 3044 3044 3045 3046 3048 3049 3047 3046 3045 3046 3047 3046 3045 3044 3043 3042 3042 3042 3042 3041 3041 3041 3041 3040 3040 3041 3041 3041 3041 3042 3043 3044 3045 3046 3047 3048 3049 3049 3049 3049 3048 3047 3047 3049 3052 3053 3053 3052 3052 3053 3052 3052 3051 3051 3051 3051 3051 3051 3052 3053 3055 3057 3058 3059 3059 3059 3059 3060 3062 3063 3063 3065 3066 3068 3070 3073 3076 3078 3079 3080 3082
3056 3055 3053 3049 3045 3043 3039 3036 3040 3043 3044 3044 3043 3041 3040 3042 3042 3041 3041 3041 3040 3039 3038 3039 3039 3039 3038 3039 3037 3036 3037 3037 3038 3038 3039 3040 3041 3041 3042 3042 3043 3044 3045 3045 3045 3046 3046 3046 3045 3045 3047 3048 3048 3048 3048 3049 3049 3048 3048 3048 3048 3047 3047 3048 3049 3050 3051 3052 3054 3055 3055 3055 3056 3056 3057 3058 3059 3061 3062 3064 3065 3067 3070 3072 3074 3076 3077
3053 3051 3048 3047 3045 3039 3034 3035 3039 3040 3039 3040 3040 3037 3036 3037 3037 3037 3038 3037 3036 3036 3035 3035 3036 3036 3035 3035 3034 3034 3034 3034 3034 3035 3036 3037 3038 3038 3039 3039 3040 3040 3040 3041 3041 3042 3043 3043 3043 3042 3043 3044 3044 3044 3044 3044 3045 3045 3044 3044 3044 3044 3044 3045 3045 3046 3047 3048 3050 3050 3051 3051 3052 3052 3053 3054 3055 3056 3058 3059 3061 3063 3064 3066 3069 3070 3072
3049 3048 3045 3043 3041 3036 3035 3038 3038 3037 3037 3038 3037 3035 3032 3032 3032 3033 3033 3032 3032 3031 3031 3031 3032 3032 3031 3031 3030 3030 3030 3031 3031 3032 3033 3034 3035 3036 3036 3036 3036 3037 3037 3038 3038 3039 3039 3040 3039 3040 3040 3040 3040 3040 3040 3040 3040 3041 3041 3041 3041 3041 3041 3041 3042 3043 3044 3044 3045 3046 3046 3047 3047 3048 3049 3049 3050 3052 3053 3055 3057 3057 3057 3058 3061 3064 3066
3045 3044 3041 3038 3036 3035 3036 3036 3035 3034 3034 3033 3034 3032 3028 3027 3028 3028 3027 3027 3027 3026 3026 3027 3027 3027 3028 3028 3028 3027 3027 3028 3029 3029 3029 3030 3032 3032 3032 3032 3032 3033 3034 3034 3035 3036 3036 3036 3036 3036 3037 3037 3037 3037 3037 3037 3037 3037 3037 3037 3038 3038 3038 3038 3038 3039 3040 3040 3041 3041 3042 3042 3043 3043 3044 3045 3046 3047 3048 3050 3052 3052 3049 3049 3053 3058 3060
3041 3040 3037 3034 3034 3034 3034 3032 3031 3030 3029 3029 3030 3029 3025 3024 3024 3023 3022 3022 3022 3022 3022 3022 3022 3023 3024 3025 3026 3026 3026 3027 3027 3027 3027 3027 3028 3029 3029 3029 3029 3030 3031 3031 3032 3032 3032 3032 3032 3033 3033 3033 3033 3033 3033 3033 3033 3033 3033 3033 3034 3034 3035 3035 3035 3035 3036 3037 3037 3037 3037 3038 3038 3039 3040 3040 3041 3042 3043 3044 3047 3048 3047 3047 3051 3053 3054
3039 3037 3035 3032 3031 3030 3029 3029 3028 3027 3027 3027 3026 3023 3022 3021 3021 3020 3020 3020 3019 3020 3020 3020 3020 3020 3020 3021 3022 3023 3023 3024 3025 3025 3025 3025 3025 3025 3025 3026 3026 3027 3028 3028 3029 3029 3029 3029 3029 3029 3029 3029 3030 3030 3029 3029 3028 3028 3028 3028 3029 3030 3031 3031 3031 3031 3032 3032 3032 3032 3033 3033 3033 3034 3035 3036 3036 3038 3038 3038 3041 3044 3045 3045 3047 3048 3048
3037 3035 3033 3031 3028 3026 3026 3026 3026 3025 3025 3025 3022 3019 3018 3017 3017 3018 3018 3017 3017 3018 3018 3018 3019 3018 3018 3018 3018 3018 3019 3019 3020 3020 3021 3021 3021 3021 3022 3022 3023 3023 3024 3024 3025 3025 3025 3025 3025 3025 3025 3025 3026 3026 3026 3025 3025 3024 3023 3023 3024 3025 3026 3027 3027 3027 3028 3028 3028 3028 3028 3028 3029 3029 3031 3031 3032 3033 3033 3034 3035 3038 3038 3039 3041 3042 3043
3036 3033 3030 3027 3025 3024 3025 3025 3025 3024 3023 3022 3020 3018 3015 3013 3013 3014 3013 3013 3014 3013 3013 3014 3014 3014 3015 3015 3014 3015 3015 3015 3015 3016 3016 3016 3017 3017 3018 3018 3019 3019 3019 3019 3020 3020 3020 3020 3020 3021 3021 3021 3021 3022 3022 3021 3021 3020 3019 3019 3018 3019 3021 3022 3023 3023 3023 3023 3024 3023 3023 3023 3024 3024 3026 3026 3027 3028 3029 3029 3030 3030 3030 3032 3035 3038 3040
3033 3030 3026 3024 3023 3023 3024 3023 3022 3022 3020 3019 3019 3017 3013 3010 3010 3011 3010 3010 3010 3010 3010 3010 3010 3010 3011 3011 3011 3011 3011 3011 3011 3011 3012 3013 3013 3014 3014 3015 3015 3015 3015 3014 3014 3014 3015 3015 3015 3015 3016 3016 3016 3016 3017 3017 3016 3015 3015 3015 3014 3014 3015 3016 3017 3018 3018 3019 3019 3019 3019 3018 3018 3019 3020 3021 3022 3023 3024 3024 3024 3024 3025 3027 3030 3033 3035
3026 3023 3022 3022 3021 3020 3020 3020 3019 3018 3016 3015 3015 3013 3010 3008 3008 3008 3008 3007 3006 3006 3007 3007 3007 3007 3007 3007 3007 3007 3007 3008 3008 3008 3008 3009 3010 3010 3011 3010 3011 3011 3010 3010 3009 3009 3009 3010 3010 3010 3010 3010 3010 3011 3011 3011 3011 3011 3011 3010 3010 3010 3010 3011 3012 3012 3013 3014 3014 3014 3014 3013 3013 3013 3015 3015 3016 3018 3018 3018 3018 3018 3020 3022 3024 3027 3030
3021 3017 3016 3018 3017 3016 3015 3014 3013 3012 3012 3011 3010 3007 3006 3007 3006 3005 3004 3004 3003 3002 3003 3003 3003 3003 3004 3004 3003 3003 3003 3003 3003 3004 3004 3005 3005 3006 3006 3005 3005 3005 3005 3004 3004 3004 3004 3004 3005 3005 3005 3005 3005 3005 3005 3005 3005 3005 3005 3005 3005 3005 3005 3005 3006 3007 3008 3008 3009 3009 3009 3008 3008 3008 3009 3009 3010 3011 3012 3013 3012 3012 3014 3017 3020 3022 3025
3017 3014 3012 3012 3010 3010 3010 3009 3008 3008 3007 3006 3005 3003 3002 3003 3003 3002 3001 3001 3000 2999 2999 2999 2999 2999 3000 3000 2999 2999 2999 2999 2999 3000 3000 3000 3000 3001 3000 3000 3000 3000 3000 2999 2999 2998 2998 2999 2999 2999 2999 2999 3000 2999 2999 2999 2999 2998 2999 2999 2999 3000 3000 3000 3001 3002 3002 3003 3003 3003 3003 3003 3003 3002 3002 3003 3003 3004 3006 3007 3008 3008 3009 3012 3015 3018 3020
3011 3009 3008 3007 3004 3002 3003 3003 3003 3003 3002 3001 2999 2999 2998 2998 2998 2997 2997 2997 2997 2996 2996 2996 2995 2995 2995 2996 2995 2995 2994 2994 2994 2995 2995 2995 2995 2995 2995 2996 2995 2995 2995 2994 2994 2993 2993 2993 2993 2993 2993 2993 2993 2993 2993 2992 2992 2992 2992 2992 2993 2993 2994 2994 2994 2996 2997 2997 2997 2997 2997 2997 2997 2997 2996 2997 2997 2999 3001 3002 3003 3004 3005 3007 3010 3012 3014
3005 3003 3003 3003 3000 2997 2995 2996 2996 2996 2995 2994 2993 2992 2992 2992 2992 2992 2991 2991 2992 2992 2992 2991 2991 2990 2990 2990 2990 2989 2989 2989 2990 2990 2990 2990 2990 2990 2991 2990 2990 2989 2989 2989 2988 2987 2987 2987 2987 2987 2986 2987 2987 2987 2986 2986 2986 2986 2986 2985 2986 2987 2987 2987 2988 2989 2991 2991 2991 2991 2991 2991 2991 2991 2990 2991 2991 2993 2995 2997 2998 2998 3000 3002 3004 3006 3008
2999 2998 2999 2999 2997 2993 2990 2990 2990 2989 2988 2987 2985 2985 2985 2985 2985 2985 2985 2984 2984 2985 2986 2986 2985 2984 2984 2984 2984 2983 2984 2984 2984 2984 2984 2984 2984 2984 2984 2984 2983 2983 2983 2982 2981 2981 2981 2981 2981 2980 2980 2980 2980 2980 2980 2980 2980 2980 2979 2979 2979 2980 2980 2980 2981 2982 2984 2985 2985 2985 2985 2985 2985 2985 2984 2985 2986 2987 2989 2991 2992 2993 2994 2996 2998 3001 3004
2995 2994 2993 2993 2991 2988 2985 2985 2984 2983 2982 2980 2978 2977 2977 2977 2978 2978 2978 2978 2977 2977 2978 2978 2979 2978 2978 2978 2977 2977 2977 2978 2978 2978 2978 2978 2977 2977 2977 2976 2976 2975 2975 2975 2974 2974 2974 2974 2974 2973 2973 2972 2972 2973 2972 2972 2973 2973 2972 2972 2972 2972 2973 2973 2974 2975 2977 2978 2979 2979 2979 2979 2979 2979 2979 2979 2980 2982 2984 2985 2987 2988 2990 2992 2993 2996 2999
2990 2988 2987 2986 2984 2981 2980 2979 2977 2976 2976 2975 2973 2972 2971 2971 2971 2971 2971 2971 2971 2971 2971 2971 2972 2973 2972 2972 2972 2971 2971 2971 2971 2971 2971 2971 2971 2971 2970 2970 2969 2969 2968 2968 2968 2968 2968 2967 2967 2967 2966 2966 2966 2966 2966 2966 2966 2966 2966 2966 2966 2965 2965 2966 2966 2968 2970 2972 2973 2973 2972 2973 2973 2973 2973 2974 2975 2977 2979 2980 2981 2983 2985 2987 2989 2991 2993
2986 2983 2981 2979 2976 2975 2975 2972 2970 2971 2971 2971 2969 2967 2967 2966 2966 2966 2966 2965 2965 2966 2965 2965 2965 2966 2967 2966 2966 2966 2965 2965 2965 2965 2965 2965 2965 2964 2964 2964 2964 2964 2963 2963 2962 2962 2962 2961 2961 2960 2960 2960 2961 2961 2960 2960 2960 2960 2960 2959 2959 2958 2958 2958 2959 2960 2963 2965 2966 2966 2966 2966 2967 2967 2967 2968 2969 2972 2973 2975 2976 2978 2980 2982 2984 2986 2989
2981 2979 2976 2971 2967 2968 2969 2967 2965 2965 2965 2965 2964 2962 2962 2962 2961 2960 2960 2960 2960 2960 2960 2960 2960 2960 2961 2961 2960 2960 2959 2959 2958 2958 2959 2959 2959 2959 2959 2959 2959 2958 2958 2957 2957 2957 2956 2956 2955 2955 2954 2955 2955 2955 2955 2954 2954 2953 2952 2952 2952 2951 2951 2952 2952 2953 2956 2958 2959 2959 2959 2960 2960 2961 2961 2962 2964 2966 2968 2970 2971 2973 2976 2978 2980 2982 2985
2975 2974 2972 2967 2962 2961 2962 2961 2960 2959 2958 2958 2958 2957 2956 2956 2955 2955 2954 2954 2954 2955 2955 2955 2955 2955 2955 2955 2955 2954 2954 2953 2952 2952 2953 2953 2953 2953 2953 2953 2953 2953 2953 2952 2952 2951 2951 2951 2950 2949 2949 2950 2950 2950 2949 2948 2947 2946 2946 2945 2945 2945 2945 2945 2946 2947 2949 2951 2952 2951 2952 2953 2954 2955 2955 2956 2959 2960 2962 2965 2967 2968 2971 2974 2976 2978 2980
2969 2968 2966 2962 2959 2956 2955 2954 2953 2953 2952 2952 2952 2951 2951 2950 2950 2949 2949 2949 2950 2950 2950 2950 2951 2951 2950 2950 2950 2949 2949 2948 2947 2947 2947 2948 2948 2948 2948 2948 2947 2947 2947 2946 2946 2946 2946 2945 2944 2944 2944 2944 2945 2944 2943 2942 2940 2940 2940 2939 2939 2938 2938 2939 2940 2940 2941 2943 2944 2943 2944 2945 2947 2948 2949 2950 2952 2955 2957 2959 2962 2964 2966 2968 2971 2974 2976
2963 2961 2959 2956 2954 2952 2950 2948 2947 2947 2946 2946 2946 2945 2945 2945 2944 2943 2944 2945 2945 2945 2945 2945 2946 2945 2945 2945 2945 2945 2944 2943 2943 2942 2942 2942 2943 2943 2943 2943 2942 2942 2941 2941 2941 2941 2941 2940 2939 2938 2939 2939 2939 2937 2936 2936 2935 2934 2934 2933 2932 2932 2931 2931 2932 2932 2933 2935 2935 2936 2937 2939 2940 2941 2942 2944 2947 2949 2952 2954 2957 2959 2961 2963 2966 2969 2972
2957 2955 2953 2950 2948 2947 2944 2942 2941 2941 2940 2940 2940 2939 2939 2939 2938 2938 2938 2939 2939 2939 2940 2940 2940 2940 2940 2940 2940 2939 2939 2938 2938 2937 2937 2937 2937 2937 2938 2938 2937 2936 2936 2936 2936 2936 2935 2934 2933 2933 2933 2933 2933 2932 2931 2930 2928 2928 2927 2926 2925 2924 2923 2923 2923 2924 2926 2927 2927 2928 2929 2931 2933 2935 2936 2938 2941 2944 2946 2949 2952 2955 2957 2959 2962 2965 2968
2950 2948 2946 2944 2942 2940 2938 2936 2935 2935 2934 2935 2934 2933 2933 2933 2933 2932 2933 2934 2934 2934 2934 2934 2935 2935 2935 2935 2935 2934 2934 2933 2933 2932 2932 2932 2932 2933 2933 2932 2932 2931 2931 2931 2930 2930 2929 2928 2928 2928 2928 2927 2927 2926 2925 2923 2922 2921 2920 2919 2917 2915 2914 2914 2915 2917 2918 2918 2918 2919 2922 2924 2926 2928 2930 2933 2936 2939 2942 2945 2948 2951 2953 2955 2957 2960 2964
2944 2941 2939 2937 2935 2933 2931 2930 2929 2928 2928 2928 2928 2927 2928 2928 2927 2927 2928 2928 2929 2929 2929 2930 2930 2931 2931 2931 2930 2929 2929 2928 2927 2927 2927 2927 2927 2927 2927 2927 2927 2926 2926 2925 2925 2924 2924 2923 2923 2923 2922 2922 2921 2920 2919 2917 2916 2915 2913 2912 2910 2907 2906 2906 2907 2908 2908 2908 2910 2912 2915 2918 2920 2923 2925 2927 2931 2934 2937 2941 2944 2946 2948 2951 2953 2956 2959
2939 2935 2933 2931 2929 2926 2924 2923 2922 2922 2921 2921 2922 2922 2922 2922 2922 2923 2923 2924 2924 2925 2925 2926 2927 2927 2927 2926 2925 2924 2923 2923 2922 2923 2923 2922 2922 2922 2922 2922 2921 2921 2920 2920 2920 2919 2919 2918 2918 2917 2917 2916 2915 2914 2913 2912 2911 2910 2909 2908 2905 2901 2899 2898 2897 2898 2899 2901 2903 2906 2909 2912 2915 2917 2920 2923 2927 2930 2933 2937 2940 2942 2944 2947 2949 2952 2955
2934 2930 2927 2925 2923 2920 2918 2917 2916 2915 2914 2914 2914 2915 2916 2916 2917 2917 2918 2919 2919 2921 2922 2923 2923 2923 2923 2922 2921 2920 2919 2919 2918 2918 2918 2918 2917 2917 2917 2917 2917 2916 2916 2916 2915 2915 2914 2914 2913 2912 2911 2910 2910 2909 2909 2908 2908 2907 2906 2905 2903 2898 2892 2889 2888 2890 2893 2896 2899 2901 2904 2907 2910 2913 2916 2920 2923 2926 2930 2933 2935 2938 2941 2943 2946 2948 2951
2928 2924 2922 2920 2917 2915 2914 2912 2911 2910 2910 2909 2909 2909 2910 2911 2911 2912 2913 2914 2915 2916 2918 2919 2919 2919 2919 2918 2918 2917 2917 2916 2915 2915 2915 2914 2914 2914 2914 2913 2913 2912 2911 2911 2910 2910 2909 2909 2909 2908 2908 2907 2907 2907 2907 2906 2905 2904 2902 2902 2902 2898 2890 2886 2885 2887 2889 2892 2895 2897 2900 2904 2907 2910 2914 2917 2920 2923 2927 2930 2932 2935 2937 2938 2940 2943 2946
2924 2922 2920 2917 2915 2912 2911 2909 2908 2907 2906 2906 2906 2906 2906 2907 2907 2908 2908 2909 2910 2912 2914 2915 2916 2916 2916 2916 2915 2915 2915 2914 2914 2913 2912 2912 2911 2911 2910 2910 2909 2908 2907 2906 2905 2905 2905 2906 2907 2907 2907 2906 2905 2905 2905 2904 2903 2901 2900 2900 2901 2898 2892 2888 2887 2886 2886 2888 2891 2894 2897 2901 2904 2907 2911 2914 2917 2920 2923 2925 2927 2929 2931 2932 2933 2936 2940
2923 2921 2918 2916 2914 2912 2910 2908 2907 2905 2904 2904 2904 2904 2904 2905 2905 2905 2905 2906 2908 2910 2911 2913 2913 2914 2914 2914 2914 2914 2913 2912 2911 2910 2910 2909 2908 2908 2907 2906 2906 2905 2904 2903 2903 2903 2903 2905 2906 2907 2906 2905 2905 2904 2904 2904 2903 2901 2900 2900 2900 2899 2896 2893 2890 2887 2886 2886 2889 2892 2894 2898 2902 2905 2907 2910 2914 2917 2919 2921 2923 2925 2928 2930 2932 2934 2937
2924 2921 2919 2917 2915 2913 2911 2909 2907 2905 2904 2904 2904 2904 2904 2904 2904 2905 2905 2906 2907 2909 2910 2911 2912 2912 2912 2912 2912 2912 2911 2910 2909 2909 2908 2907 2906 2905 2904 2904 2904 2904 2904 2903 2903 2903 2904 2905 2907 2907 2906 2906 2906 2905 2906 2906 2905 2903 2903 2902 2900 2900 2899 2898 2896 2894 2893 2892 2893 2895 2895 2897 2901 2904 2906 2909 2912 2915 2918 2921 2923 2925 2928 2932 2935 2937 2939
2926 2923 2921 2918 2916 2914 2913 2911 2909 2907 2906 2906 2905 2905 2905 2905 2905 2906 2907 2908 2909 2910 2910 2911 2911 2911 2911 2911 2911 2911 2910 2910 2909 2909 2907 2906 2905 2904 2904 2904 2905 2906 2906 2905 2905 2906 2906 2907 2908 2908 2908 2908 2908 2908 2908 2908 2908 2907 2907 2906 2904 2903 2903 2903 2902 2901 2900 2899 2900 2901 2901 2902 2904 2907 2909 2911 2915 2917 2920 2923 2926 2928 2931 2935 2938 2940 2943
2928 2925 2922 2920 2918 2916 2914 2913 2912 2910 2910 2909 2908 2908 2908 2908 2908 2909 2909 2910 2910 2911 2911 2911 2911 2910 2910 2910 2910 2910 2910 2910 2911 2910 2909 2908 2907 2907 2906 2906 2908 2909 2909 2909 2909 2909 2910 2910 2911 2911 2911 2911 2912 2912 2912 2911 2911 2911 2910 2910 2909 2908 2908 2908 2907 2907 2906 2906 2906 2908 2909 2910 2912 2913 2915 2917 2920 2922 2925 2928 2931 2933 2936 2939 2942 2944 2947
2931 2927 2924 2922 2919 2917 2916 2915 2914 2913 2913 2912 2912 2911 2911 2911 2911 2911 2911 2912 2912 2911 2911 2911 2910 2910 2910 2910 2911 2912 2912 2913 2913 2913 2912 2911 2911 2911 2910 2911 2912 2913 2914 2914 2914 2914 2914 2914 2914 2915 2915 2915 2916 2916 2916 2915 2915 2915 2914 2914 2914 2913 2914 2914 2913 2913 2914 2914 2914 2915 2916 2918 2919 2920 2921 2923 2926 2928 2931 2934 2936 2939 2941 2944 2946 2949 2952
2934 2930 2927 2924 2921 2919 2918 2917 2917 2916 2916 2915 2915 2914 2914 2914 2914 2914 2913 2913 2913 2913 2913 2912 2912 2912 2913 2913 2914 2915 2916 2916 2917 2917 2916 2914 2914 2914 2915 2915 2917 2918 2918 2918 2918 2919 2919 2919 2919 2920 2920 2921 2921 2921 2921 2921 2921 2920 2920 2919 2919 2919 2919 2919 2919 2920 2920 2921 2921 2922 2924 2925 2926 2927 2928 2930 2932 2934 2937 2939 2942 2944 2947 2949 2952 2954 2957
2937 2934 2931 2927 2924 2921 2920 2919 2919 2918 2918 2918 2917 2917 2916 2916 2916 2916 2916 2916 2916 2916 2917 2917 2917 2918 2918 2919 2919 2919 2919 2920 2921 2921 2921 2920 2919 2918 2919 2920 2921 2922 2923 2923 2923 2923 2923 2923 2924 2925 2925 2926 2926 2927 2927 2927 2926 2926 2926 2925 2925 2925 2924 2925 2925 2926 2926 2927 2927 2928 2930 2931 2932 2934 2935 2936 2938 2940 2943 2945 2947 2950 2952 2954 2957 2959 2961
2942 2939 2935 2932 2928 2925 2923 2922 2922 2921 2921 2920 2920 2919 2919 2919 2919 2920 2921 2921 2921 2922 2922 2922 2922 2923 2923 2924 2924 2923 2923 2923 2924 2925 2926 2925 2923 2924 2925 2927 2927 2927 2928 2928 2927 2927 2927 2927 2928 2929 2929 2930 2931 2931 2931 2931 2931 2931 2931 2931 2931 2931 2930 2931 2931 2931 2932 2932 2933 2934 2936 2937 2938 2940 2941 2943 2945 2947 2948 2950 2952 2954 2956 2958 2960 2962 2963
2946 2944 2941 2938 2934 2931 2929 2928 2926 2926 2925 2925 2924 2924 2924 2924 2925 2925 2926 2926 2926 2926 2926 2926 2927 2927 2927 2928 2928 2928 2929 2929 2928 2928 2929 2929 2928 2928 2930 2931 2931 2932 2932 2932 2931 2931 2931 2932 2932 2933 2933 2934 2934 2934 2934 2934 2934 2935 2935 2935 2935 2935 2935 2936 2936 2937 2937 2938 2939 2940 2941 2942 2943 2945 2946 2948 2949 2951 2953 2954 2956 2958 2959 2961 2962 2963 2964
2951 2949 2946 2944 2941 2938 2936 2934 2933 2932 2931 2930 2929 2929 2930 2930 2930 2930 2931 2931 2930 2931 2931 2931 2931 2931 2932 2932 2933 2933 2933 2934 2933 2932 2932 2932 2933 2933 2934 2934 2934 2935 2935 2935 2935 2934 2934 2935 2936 2936 2936 2937 2937 2937 2937 2937 2938 2938 2938 2938 2938 2939 2939 2939 2940 2941 2941 2942 2943 2944 2945 2946 2947 2948 2950 2951 2952 2954 2955 2957 2958 2960 2961 2962 2963 2964 2965
2955 2953 2951 2949 2947 2945 2942 2941 2939 2938 2937 2937 2936 2935 2936 2936 2936 2936 2936 2936 2936 2936 2936 2936 2936 2936 2936 2936 2936 2936 2936 2937 2937 2936 2935 2936 2936 2937 2937 2937 2937 2937 2938 2938 2937 2937 2937 2938 2938 2939 2939 2939 2939 2939 2940 2940 2940 2941 2941 2941 2942 2942 2942 2943 2943 2944 2944 2945 2946 2947 2948 2949 2950 2951 2952 2953 2954 2956 2957 2958 2959 2961 2962 2963 2963 2964 2964
2958 2956 2955 2953 2952 2950 2948 2946 2945 2943 2943 2942 2942 2941 2941 2941 2941 2941 2941 2941 2941 2941 2940 2940 2940 2940 2940 2940 2940 2939 2939 2940 2940 2939 2938 2939 2940 2940 2940 2940 2940 2940 2940 2941 2940 2940 2940 2940 2941 2941 2941 2942 2942 2942 2942 2942 2942 2943 2943 2944 2944 2945 2945 2945 2946 2946 2947 2947 2948 2949 2950 2951 2952 2953 2954 2955 2956 2957 2957 2958 2959 2960 2961 2961 2962 2962 2963
2961 2960 2958 2957 2955 2954 2953 2951 2950 2948 2948 2947 2946 2946 2946 2946 2945 2944 2945 2945 2946 2945 2945 2945 2944 2944 2944 2943 2943 2943 2943 2943 2942 2942 2942 2942 2942 2942 2942 2943 2943 2943 2943 2943 2943 2943 2943 2943 2943 2943 2944 2944 2944 2944 2944 2944 2944 2945 2945 2945 2946 2946 2947 2948 2948 2948 2949 2949 2950 2951 2951 2952 2953 2954 2955 2955 2956 2957 2958 2958 2959 2959 2960 2960 2960 2961 2961
2964 2963 2961 2960 2959 2958 2957 2955 2954 2953 2952 2951 2950 2950 2950 2949 2948 2948 2948 2948 2948 2949 2949 2948 2947 2947 2947 2947 2946 2946 2946 2945 2945 2945 2945 2945 2945 2945 2945 2945 2945 2945 2945 2946 2946 2946 2946 2945 2945 2945 2945 2946 2946 2946 2946 2946 2947 2947 2947 2947 2947 2948 2948 2949 2949 2950 2951 2951 2952 2952 2953 2953 2954 2955 2955 2956 2956 2957 2958 2958 2959 2959 2959 2960 2960 2960 2961
2966 2965 2964 2962 2961 2960 2959 2958 2957 2957 2956 2956 2955 2955 2954 2953 2953 2952 2951 2951 2951 2951 2951 2951 2950 2950 2949 2949 2949 2949 2948 2948 2948 2948 2948 2948 2948 2948 2948 2948 2948 2948 2948 2948 2948 2948 2948 2948 2948 2948 2947 2947 2947 2948 2948 2948 2948 2949 2949 2949 2949 2949 2950 2950 2950 2951 2951 2952 2953 2953 2954 2954 2955 2955 2956 2956 2956 2957 2957 2958 2958 2959 2959 2959 2959 2960 2960